Regional Weather Roundup
Issued by NWS

Home | Current Version | Previous Version | Graphics & Text | Print | Product List | Glossary On
Versions: 1 2 3 4 5 6 7 8 9 10 11 12 13 14 15 16 17 18 19 20 21 22 23 24 25 26 27 28 29 30 31 32 33 34 35 36 37 38 39 40 41 42 43 44 45 46 47 48 49 50
000
ASUS44 KMEG 280600
RWRTN
TENNESSEE HOURLY STATE WEATHER ROUNDUP
NATIONAL WEATHER SERVICE MEMPHIS TN
100 AM CDT THU AUG 28 2014

TNZ002-004-019-021-049-052-054-088>092-280700-
WEST TENNESSEE

CITY           SKY/WX    TMP DP  RH WIND       PRES   REMARKS
MEMPHIS INTL   FAIR      79  66  64 CALM      30.04R
NWS MEMPHIS      N/A     72 N/A N/A MISG        N/A
JACKSON        FAIR      73  70  90 CALM      30.04S FOG
DYERSBURG      FAIR      75  66  73 CALM      30.05S
UNION CITY     CLEAR     73  73 100 CALM      30.03S
PARIS          CLEAR     72  70  94 CALM      30.04S
SAVANNAH       CLEAR     70  70 100 CALM      30.04S
$$

TNZ008-025-027-028-033-062-065-066-280700-
NORTH MIDDLE TENNESSEE

CITY           SKY/WX    TMP DP  RH WIND       PRES   REMARKS
NASHVILLE      FAIR      75  71  87 CALM      30.04F
CLARKSVILLE    FAIR      74  71  91 CALM      30.04S
COOKEVILLE     CLEAR     66  66 100 CALM      30.07S
CROSSVILLE     FAIR      72  64  76 CALM      30.11F
$$

TNZ061-075-076-078-094-096-097-280700-
SOUTH MIDDLE TENNESSEE

CITY           SKY/WX    TMP DP  RH WIND       PRES   REMARKS
SHELBYVILLE    CLEAR     70  70 100 CALM      30.06F
$$

TNZ017-018-042-046-047-280700-
NORTHEAST TENNESSEE

CITY           SKY/WX    TMP DP  RH WIND       PRES   REMARKS
TRI CITIES     FAIR      63  59  87 NE3       30.10S
ELIZABETHTON   CLEAR     61  57  88 CALM      30.11S
$$

TNZ012-013-036-069-073-074-280700-
CENTRAL EAST TENNESSEE

CITY           SKY/WX    TMP DP  RH WIND       PRES   REMARKS
KNOXVILLE      FAIR      69  64  84 CALM      30.05F
OAK RIDGE      FAIR      68  65  90 CALM      30.07F
GATLINBURG     CLEAR     64  63  94 CALM      30.06F
$$

TNZ083-085-099-280700-
SOUTHEAST TENNESSEE

CITY           SKY/WX    TMP DP  RH WIND       PRES   REMARKS
CHATTANOOGA    FAIR      71  63  75 CALM      30.05F
$$

SKY/WX REPORTED AS FAIR MEANS FEW OR NO CLOUDS BELOW
12 THOUSAND FEET.



USA.gov is the U.S. government's official web portal to all federal, state and local government web resources and services.